Theta_e
357 357 355 355 352 351 354 354 353 353 353 352 352 352 352 353 353 356 354 355 357 356 356 353 354 352 353 348 347 346 346 345 344 343 342 342 345 348 349 349 348 348 347
356 357 356 356 353 352 353 354 355 356 355 355 356 354 353 351 352 356 356 353 356 356 357 356 355 354 355 355 355 352 348 347 347 350 347 347 347 348 347 348 350 351 348
355 355 356 356 356 353 355 354 355 356 357 356 356 357 355 352 352 356 357 356 355 355 355 355 356 356 357 355 355 351 350 352 353 353 354 352 351 349 349 349 350 352 353
352 353 354 356 356 355 354 356 356 357 358 358 357 357 357 355 352 352 355 357 356 355 355 355 356 357 358 359 359 359 358 357 353 353 352 351 350 349 348 348 349 348 349
352 352 354 357 356 356 354 356 356 358 358 359 359 358 358 356 354 352 353 355 357 356 355 355 355 356 356 358 359 358 358 358 356 354 353 352 350 349 351 352 351 353 354
354 353 353 356 357 357 356 356 358 359 359 360 360 360 359 355 352 351 350 351 353 354 356 357 356 356 357 356 357 358 357 358 362 357 354 352 354 354 354 355 358 358 362
357 355 355 356 358 358 357 358 359 360 360 361 361 361 361 359 353 351 349 348 351 353 354 356 357 352 354 358 359 358 357 355 354 353 357 358 358 358 359 362 358 359 362
357 360 357 359 360 360 360 360 361 361 361 362 362 361 362 361 357 353 352 349 349 349 352 354 355 354 354 356 358 357 357 358 359 358 357 356 357 357 358 359 360 359 360
362 359 361 360 362 362 362 362 362 363 363 362 363 363 363 361 358 354 354 352 352 353 353 352 353 356 358 356 352 353 354 355 351 350 349 350 351 352 353 354 355 358 362
363 362 362 361 363 364 364 364 364 364 364 361 362 363 363 363 361 358 355 355 354 354 355 356 355 354 354 354 356 357 358 358 357 355 355 357 359 363 364 363 360 361 362
361 362 363 363 364 365 365 365 365 365 361 363 363 363 362 361 363 360 357 356 354 353 353 351 352 353 352 351 351 353 357 358 357 356 359 362 363 365 366 365 363 362 362
360 361 363 364 363 364 365 366 366 366 365 366 364 365 362 364 362 362 361 359 356 355 353 347 348 348 349 350 351 352 353 353 354 357 359 361 362 362 361 364 362 360 360
361 362 362 364 365 363 365 366 365 365 362 363 363 361 359 358 360 360 359 359 358 357 355 351 351 352 357 359 358 357 358 357 358 360 362 363 362 361 362 362 361 360 358
362 364 363 364 364 363 364 364 363 362 363 361 361 361 358 355 353 357 359 359 358 357 356 355 355 358 360 361 362 362 360 360 361 362 363 361 361 362 362 360 357 355 357
362 362 363 362 362 363 362 362 361 360 359 359 355 354 353 356 357 359 361 363 359 357 357 357 357 358 359 361 362 363 362 364 364 363 361 362 361 358 355 357 355 356 355
361 362 361 361 362 362 362 359 359 359 359 358 358 357 361 358 359 361 362 364 365 363 358 360 361 362 362 363 362 362 363 364 365 364 362 360 358 359 359 356 354 355 349
361 362 362 361 361 363 362 362 361 356 357 359 359 360 360 361 360 362 362 363 363 363 364 364 362 361 365 363 362 363 364 364 363 363 361 360 360 359 356 353 352 348 345
349 352 360 361 362 362 363 363 362 361 360 359 358 358 358 358 359 358 359 359 360 359 362 363 362 363 363 364 366 364 363 362 362 361 360 359 358 356 353 350 347 345 344
338 343 348 351 356 361 359 356 357 361 360 357 347 347 353 354 353 354 355 358 361 363 362 362 362 364 364 364 362 360 361 360 359 357 356 356 356 353 348 345 344 342 342
330 337 345 350 352 349 345 346 347 351 352 352 352 349 347 350 346 347 351 353 358 363 364 364 362 362 360 357 355 357 356 353 351 351 351 349 346 343 342 342 342 342 343
326 330 335 345 348 343 342 343 350 349 350 354 354 357 357 354 359 359 354 355 357 358 359 359 358 354 352 352 351 350 350 349 348 346 344 343 342 341 340 341 341 342 342
326 327 330 335 341 349 348 348 342 343 348 352 356 351 353 352 354 358 356 354 350 348 347 350 350 347 344 343 343 344 344 344 342 342 341 341 339 339 339 339 340 339 338
324 326 328 332 335 336 344 343 343 345 346 346 351 352 347 349 346 346 346 343 341 339 339 341 342 338 335 335 334 334 334 336 337 337 337 337 337 338 338 337 337 337 337
315 315 317 321 322 328 329 334 342 337 338 338 342 345 345 342 337 334 331 330 329 328 328 327 326 326 325 326 325 324 319 322 326 328 326 332 335 336 336 336 336 337 337
306 306 306 305 310 310 311 313 317 317 318 319 321 322 324 328 330 328 326 325 323 321 319 317 317 315 311 308 307 311 312 314 319 326 329 327 330 332 334 336 336 337 336
299 299 300 300 300 300 300 300 299 300 301 302 303 306 306 308 309 311 312 311 311 308 304 305 304 304 301 300 309 310 310 311 313 316 321 324 326 330 331 330 333 335 336
Wind_Speed
38 38 37 35 34 34 28 27 25 21 18 21 17 17 18 18 18 18 18 11 16 14 13 10 12 14 12 10 11 11 12 11 12 14 13 12 10 14 16 17 17 19 21
40 38 38 35 36 34 34 31 26 26 24 21 21 20 19 20 20 20 20 18 16 15 16 16 15 15 17 18 14 12 12 12 14 14 17 19 20 20 22 22 19 16 20
39 40 38 38 36 36 34 33 31 28 26 24 24 22 21 21 21 22 22 21 19 19 19 18 18 18 17 17 16 16 16 17 16 18 19 19 20 20 21 22 23 23 20
39 41 40 40 39 38 35 34 33 31 28 27 26 25 24 23 23 24 23 22 22 21 20 20 20 21 20 19 19 18 18 19 19 20 22 21 21 20 19 20 20 18 19
37 38 40 40 39 36 37 35 33 32 32 30 28 27 26 25 25 26 24 23 23 22 21 22 23 23 23 22 21 21 21 20 21 21 21 20 20 19 18 21 27 26 22
36 39 37 38 38 39 37 36 34 34 32 31 30 29 29 29 28 28 27 25 24 23 22 23 24 23 26 28 28 30 29 23 19 22 24 23 24 24 24 23 25 28 25
33 36 35 37 39 38 38 37 37 35 32 32 31 30 31 32 30 30 31 28 24 25 24 23 23 24 26 26 25 27 29 30 32 34 30 29 29 27 27 26 26 26 27
36 33 37 36 37 36 36 38 37 35 34 33 32 32 31 32 34 34 31 33 30 28 24 25 27 27 25 20 22 24 25 24 25 26 30 31 28 26 24 24 27 29 29
32 38 38 39 37 36 37 37 35 33 32 33 32 32 32 32 33 35 34 29 29 29 29 31 30 27 27 29 31 30 30 30 31 32 34 35 36 36 35 34 29 24 24
37 40 36 36 35 36 36 36 36 34 33 33 32 30 32 31 33 34 35 30 28 28 28 31 33 35 33 33 32 30 29 28 27 28 27 26 25 24 24 25 26 23 24
33 31 33 35 35 34 32 31 33 33 31 30 29 30 31 33 31 33 36 33 29 27 29 27 28 30 32 33 37 36 32 28 26 25 24 23 22 22 19 21 22 21 21
30 32 32 33 34 33 32 32 31 30 29 26 28 27 30 29 31 32 33 35 34 31 28 26 25 27 27 27 28 30 29 28 24 24 23 21 22 23 21 13 17 21 21
28 29 29 30 32 30 32 30 29 28 29 29 28 28 28 27 29 32 33 35 37 36 30 26 26 25 18 17 20 22 21 19 19 20 21 23 21 17 19 19 20 22 25
24 25 27 29 30 29 31 31 30 29 29 27 28 26 26 26 26 26 32 36 35 35 39 33 29 22 19 19 16 18 21 21 22 22 23 19 19 17 16 18 21 13 14
23 25 27 29 31 30 28 30 29 28 29 28 26 26 25 24 27 26 24 21 24 30 24 23 24 23 24 24 23 21 21 21 22 19 19 19 18 17 17 12 10 13 17
20 25 28 29 30 30 29 19 25 21 25 23 20 14 7 10 12 19 25 20 16 21 24 22 22 21 22 19 16 16 19 20 19 20 18 14 14 13 11 12 14 16 15
17 21 25 28 29 27 27 25 22 13 12 11 13 9 10 4 5 5 8 15 15 14 18 18 19 19 14 16 19 19 17 18 17 15 14 13 12 12 12 15 15 15 12
17 13 5 17 23 24 25 23 20 18 17 15 18 15 18 19 15 12 6 11 8 13 20 21 19 16 15 12 11 12 15 11 12 13 13 13 14 15 15 15 15 14 12
20 17 12 2 9 11 10 11 11 10 10 11 9 5 6 16 9 18 20 17 16 20 18 19 15 13 13 12 11 12 12 13 12 13 14 15 16 17 15 15 15 13 7
19 17 15 10 7 6 16 16 15 11 8 7 7 5 8 13 2 15 20 21 21 17 16 13 14 12 10 9 9 10 10 11 12 12 13 14 14 13 15 14 15 16 10
17 12 10 6 7 9 8 16 2 1 5 15 21 7 9 12 10 14 15 16 17 14 14 11 7 7 6 6 7 9 10 12 10 10 11 12 10 13 14 16 15 14 10
10 13 16 18 15 7 15 19 18 5 20 24 12 19 17 9 0 6 9 11 7 6 5 6 7 5 5 5 3 2 5 7 7 8 9 9 11 13 14 13 14 12 13
13 12 10 13 13 18 6 5 5 14 14 8 11 8 9 8 8 9 9 7 4 3 3 3 3 3 1 1 0 2 5 5 6 6 8 9 10 13 10 11 14 14 13
18 18 17 14 16 16 21 22 16 21 20 26 24 15 13 10 9 11 9 8 7 6 6 7 6 6 5 4 3 4 4 8 9 9 7 10 11 11 12 12 14 16 15
17 17 14 18 18 16 16 18 18 18 18 19 21 22 22 18 11 9 6 7 7 8 11 9 9 9 10 8 8 7 6 7 7 10 11 11 12 13 16 15 14 17 17
26 23 20 19 21 24 22 22 22 20 18 16 15 14 15 15 13 11 9 9 12 15 14 13 14 14 12 12 10 8 8 8 6 5 6 7 10 12 11 9 14 19 20
Wind_Direction
205 203 202 201 203 206 208 210 218 217 222 222 225 216 221 222 221 216 227 237 195 219 243 228 219 253 259 245 236 245 254 255 263 272 277 285 294 280 279 271 278 274 274
205 203 202 201 202 204 207 212 211 215 220 221 221 220 218 219 218 214 217 226 226 219 222 230 230 235 239 259 268 269 261 267 273 281 281 285 284 282 279 267 271 281 280
203 203 202 204 204 205 205 208 211 213 215 219 219 219 218 217 218 218 219 225 230 223 230 232 233 232 237 244 246 253 256 251 259 264 274 279 283 288 284 279 276 271 274
201 205 204 204 205 205 206 206 208 209 210 214 217 218 219 220 219 221 222 224 228 229 231 233 235 234 232 234 243 252 261 269 275 277 276 278 278 281 278 276 276 285 297
199 203 203 204 204 204 205 206 206 207 209 211 214 217 218 221 223 220 222 222 225 231 234 232 235 238 240 239 243 247 251 256 261 266 269 274 279 289 304 311 305 291 291
201 203 202 200 203 203 204 206 207 207 208 210 213 215 217 221 226 225 218 223 228 229 231 235 240 246 243 243 245 249 253 262 270 272 278 282 285 290 290 296 308 305 297
208 201 203 199 201 204 203 203 206 207 208 210 212 215 218 221 226 228 225 223 228 229 233 236 240 245 244 241 249 256 259 260 260 260 263 267 279 283 289 293 291 291 291
206 203 202 201 202 201 201 203 204 205 207 209 213 216 219 221 225 228 228 229 230 235 237 237 239 246 251 249 246 249 253 256 261 264 260 266 267 277 279 279 285 289 288
207 208 202 202 199 200 202 203 205 205 208 211 214 216 219 223 226 229 228 228 233 236 237 240 242 245 247 251 254 259 263 264 265 270 271 271 271 274 276 277 278 282 285
212 206 205 202 203 203 204 202 203 205 209 213 215 216 220 223 225 227 229 226 232 236 241 242 244 244 248 250 251 251 256 260 266 272 274 278 278 277 274 263 263 262 272
207 206 203 204 205 204 203 204 204 206 210 211 216 216 220 222 224 230 229 223 230 236 241 245 245 250 252 252 250 248 253 262 267 274 276 277 278 276 267 264 266 261 277
198 203 200 201 203 201 200 201 204 204 208 209 212 217 221 223 225 227 230 229 225 232 242 245 247 251 252 253 255 254 259 262 264 265 267 269 271 266 270 282 275 280 285
191 197 200 198 198 201 195 198 199 202 209 212 212 220 225 223 226 230 231 233 234 230 235 242 251 258 263 240 243 251 258 255 254 258 261 263 272 284 281 280 283 284 291
189 194 198 193 194 200 195 199 203 205 209 211 215 216 221 226 227 221 225 229 233 234 234 238 245 252 249 248 248 250 246 250 250 252 259 269 271 272 265 274 285 278 281
196 197 195 196 194 196 197 197 199 207 208 212 212 215 218 221 226 227 223 209 218 223 221 228 234 239 245 250 251 251 252 253 245 245 258 266 262 262 268 264 251 266 273
198 201 197 196 190 192 195 187 195 203 216 215 216 218 194 217 225 218 220 219 209 210 201 220 223 227 232 237 241 249 250 252 255 257 257 253 255 257 250 252 261 259 270
214 214 200 203 186 192 196 189 189 188 199 205 219 225 235 234 62 198 209 218 215 194 211 219 228 231 223 237 231 233 239 242 242 242 247 251 249 252 256 249 262 259 259
23 46 114 221 181 192 191 189 189 184 204 221 235 238 251 257 255 255 241 243 242 243 241 237 237 235 242 241 207 235 249 242 236 236 240 248 247 255 264 265 259 258 258
26 21 19 352 104 130 112 93 119 142 157 127 143 187 251 246 247 270 266 252 255 248 227 238 236 237 231 236 237 236 241 242 243 243 246 245 254 260 270 265 268 270 280
12 9 13 3 113 157 163 170 174 168 178 144 97 308 1 266 83 292 255 238 237 251 250 239 224 221 225 225 225 228 239 244 247 251 262 272 274 271 273 269 263 265 228
1 357 322 254 216 219 241 258 177 295 250 194 174 179 213 194 186 194 218 209 219 224 237 246 244 233 209 211 222 228 237 249 262 264 267 270 268 276 268 262 269 277 271
4 11 351 348 347 250 245 209 194 165 235 219 180 139 195 221 180 245 185 176 147 141 149 169 173 163 147 123 101 201 261 266 273 283 282 273 262 264 264 268 268 264 258
28 10 6 344 343 343 298 320 176 191 232 224 185 153 80 88 51 83 87 91 92 115 121 123 151 169 114 86 340 268 268 272 267 271 274 271 268 267 278 268 271 263 258
22 33 21 348 359 9 18 16 43 44 37 31 34 47 83 99 93 92 87 96 92 89 80 78 74 62 52 42 18 8 288 273 266 258 277 269 265 263 261 265 270 264 252
37 46 29 14 17 18 34 34 32 35 43 49 52 44 44 48 70 70 84 101 108 99 81 76 73 64 54 43 26 0 342 313 287 268 264 267 268 270 269 249 258 261 266
50 52 51 46 40 43 38 44 43 44 40 41 59 72 77 72 67 60 45 68 85 82 77 74 67 63 47 34 34 28 10 360 349 310 281 273 270 275 297 305 287 286 285